,,,PA_Meas_PMT16A,,PR_Meas_QMR101_102,,RH_Meas_QMH101,,SR_Meas_QMS101,,TA_Meas_QMH101,,GenWind,,GenWind,
date,time,status,PA,status,PR,status,RH,status,SR,status,TA,status,DirAvg,status,SpdAvg,
2014-03-16, 00:00:05,VALID,1011.49,VALID,0,VALID,96.931,VALID,0,VALID,24.2378,VALID,14,VALID,0,
2014-03-16, 00:01:05,VALID,1011.49,VALID,0,VALID,95.7718,VALID,0,VALID,24.2573,VALID,14,VALID,0,
2014-03-16, 00:02:05,VALID,1011.46,VALID,0,VALID,95.0855,VALID,0,VALID,24.2786,VALID,14,VALID,0,
2014-03-16, 00:03:05,VALID,1011.46,VALID,0,VALID,94.7195,VALID,0,VALID,24.2378,VALID,14,VALID,0,
2014-03-16, 00:04:05,VALID,1011.48,VALID,0,VALID,94.2848,VALID,0,VALID,24.2591,VALID,14,VALID,0,
2014-03-16, 00:05:05,VALID,1011.49,VALID,0,VALID,94.3001,VALID,0,VALID,24.2396,VALID,14,VALID,0,
2014-03-16, 00:06:05,VALID,1011.48,VALID,0,VALID,93.7053,VALID,0,VALID,24.2396,VALID,14,VALID,0,
2014-03-16, 00:07:05,VALID,1011.45,VALID,0,VALID,93.2172,VALID,0,VALID,24.2202,VALID,14,VALID,0,
2014-03-16, 00:08:05,VALID,1011.45,VALID,0,VALID,93.0571,VALID,0,VALID,24.2202,VALID,14,VALID,0,
2014-03-16, 00:09:05,VALID,1011.42,VALID,0,VALID,92.5766,VALID,0,VALID,24.2007,VALID,14,VALID,0,
2014-03-16, 00:10:05,VALID,1011.4,VALID,0,VALID,92.5614,VALID,0,VALID,24.1812,VALID,14,VALID,0,
2014-03-16, 00:11:05,VALID,1011.37,VALID,0,VALID,92.6682,VALID,0,VALID,24.1812,VALID,14,VALID,0,
2014-03-16, 00:12:05,VALID,1011.35,VALID,0,VALID,93.5451,VALID,0.112112,VALID,24.1599,VALID,14,VALID,0,
2014-03-16, 00:13:05,VALID,1011.36,VALID,0,VALID,94.4145,VALID,0.112112,VALID,24.1191,VALID,14,VALID,0,
2014-03-16, 00:14:05,VALID,1011.33,VALID,0,VALID,95.2228,VALID,0.112112,VALID,24.0996,VALID,14,VALID,0,
2014-03-16, 00:15:05,VALID,1011.33,VALID,0,VALID,95.4897,VALID,0.112112,VALID,24.1014,VALID,14,VALID,0,
2014-03-16, 00:16:05,VALID,1011.32,VALID,0,VALID,95.5354,VALID,0.112112,VALID,24.0411,VALID,14,VALID,0,
2014-03-16, 00:17:05,VALID,1011.33,VALID,0,VALID,95.6269,VALID,0.112112,VALID,24.0235,VALID,14,VALID,0,
2014-03-16, 00:18:05,VALID,1011.31,VALID,0,VALID,96.6335,VALID,0.112112,VALID,24.004,VALID,14,VALID,0,
2014-03-16, 00:19:05,VALID,1011.31,VALID,0,VALID,97.3656,VALID,0.112112,VALID,23.9437,VALID,14,VALID,0,
2014-03-16, 00:20:05,VALID,1011.31,VALID,0,VALID,97.9299,VALID,0.112112,VALID,23.9242,VALID,14,VALID,0,
2014-03-16, 00:21:04,VALID,1011.29,VALID,0,VALID,98.5857,VALID,0.112112,VALID,23.9455,VALID,14,VALID,0,
2014-03-16, 00:22:04,VALID,1011.24,VALID,0,VALID,99.4246,VALID,0.112112,VALID,23.9455,VALID,14,VALID,0,
2014-03-16, 00:23:04,VALID,1011.25,VALID,0,VALID,100.05,VALID,0.112112,VALID,23.9455,VALID,14,VALID,0,
2014-03-16, 00:24:04,VALID,1011.23,VALID,0,VALID,100.347,VALID,0.112112,VALID,23.926,VALID,14,VALID,0,
2014-03-16, 00:25:04,VALID,1011.22,VALID,0,VALID,100.485,VALID,0.112112,VALID,23.9065,VALID,14,VALID,0,
2014-03-16, 00:26:04,VALID,1011.22,VALID,0,VALID,100.507,VALID,0.112112,VALID,23.9065,VALID,14,VALID,0,
2014-03-16, 00:27:04,VALID,1011.23,VALID,0,VALID,100.934,VALID,0,VALID,23.8871,VALID,14,VALID,0,
2014-03-16, 00:28:04,VALID,1011.22,VALID,0,VALID,101.102,VALID,0.112112,VALID,23.9065,VALID,14,VALID,0,
2014-03-16, 00:29:04,VALID,1011.23,VALID,0,VALID,100.835,VALID,0.112112,VALID,23.9047,VALID,14,VALID,0,
2014-03-16, 00:30:04,VALID,1011.27,VALID,0,VALID,100.797,VALID,0,VALID,23.926,VALID,14,VALID,0,
2014-03-16, 00:31:04,VALID,1011.24,VALID,0,VALID,101.75,VALID,0.112112,VALID,23.9845,VALID,14,VALID,0,
2014-03-16, 00:32:04,VALID,1011.23,VALID,0,VALID,101.27,VALID,0.112112,VALID,23.965,VALID,15,VALID,0,
2014-03-16, 00:33:04,VALID,1011.24,VALID,0,VALID,101.316,VALID,0,VALID,23.9845,VALID,14,VALID,0,
2014-03-16, 00:34:04,VALID,1011.21,VALID,0,VALID,101.933,VALID,0.112112,VALID,24.0058,VALID,14,VALID,0,
2014-03-16, 00:35:04,VALID,1011.2,VALID,0,VALID,102.574,VALID,0,VALID,24.004,VALID,15,VALID,0,
2014-03-16, 00:36:04,VALID,1011.18,VALID,0,VALID,102.78,VALID,0,VALID,24.0448,VALID,14,VALID,0,
2014-03-16, 00:37:04,VALID,1011.15,VALID,0,VALID,102.513,VALID,0,VALID,24.0448,VALID,14,VALID,0,
2014-03-16, 00:38:04,VALID,1011.14,VALID,0,VALID,102.658,VALID,0.112112,VALID,24.0429,VALID,15,VALID,0,
2014-03-16, 00:39:04,VALID,1011.12,VALID,0,VALID,103.009,VALID,0,VALID,24.0837,VALID,14,VALID,0,
2014-03-16, 00:40:04,VALID,1011.09,VALID,0,VALID,103.527,VALID,0,VALID,24.1032,VALID,15,VALID,0,
2014-03-16, 00:41:04,VALID,1011.08,VALID,0,VALID,103.512,VALID,0.112112,VALID,24.1014,VALID,14,VALID,0,
2014-03-16, 00:42:04,VALID,1011.05,VALID,0,VALID,103.97,VALID,0,VALID,24.1617,VALID,14,VALID,0,
2014-03-16, 00:43:04,VALID,1011.07,VALID,0,VALID,104,VALID,0.112112,VALID,24.1793,VALID,14,VALID,0,
2014-03-16, 00:44:04,VALID,1011.04,VALID,0,VALID,104,VALID,0,VALID,24.1988,VALID,14,VALID,0,
2014-03-16, 00:45:04,VALID,1011.04,VALID,0,VALID,103.245,VALID,0.112112,VALID,24.2396,VALID,14,VALID,0,
2014-03-16, 00:46:04,VALID,1011.01,VALID,0,VALID,101.88,VALID,0.112112,VALID,24.1988,VALID,14,VALID,0,
2014-03-16, 00:47:04,VALID,1010.98,VALID,0,VALID,101.293,VALID,0.112112,VALID,24.1988,VALID,14,VALID,0,
2014-03-16, 00:48:04,VALID,1010.95,VALID,0,VALID,100.965,VALID,0.112112,VALID,24.1793,VALID,14,VALID,0,
2014-03-16, 00:49:04,VALID,1010.93,VALID,0,VALID,100.424,VALID,0,VALID,24.1599,VALID,14,VALID,0,
2014-03-16, 00:50:04,VALID,1010.92,VALID,0,VALID,99.8592,VALID,0,VALID,24.1617,VALID,14,VALID,0,
2014-03-16, 00:51:04,VALID,1010.92,VALID,0,VALID,99.2111,VALID,0.112112,VALID,24.1209,VALID,14,VALID,0,
2014-03-16, 00:52:04,VALID,1010.91,VALID,0,VALID,98.5629,VALID,0.112112,VALID,24.1209,VALID,14,VALID,0,
2014-03-16, 00:53:04,VALID,1010.88,VALID,0,VALID,98.3493,VALID,0.112112,VALID,24.1209,VALID,14,VALID,0,
2014-03-16, 00:54:04,VALID,1010.87,VALID,0,VALID,98.5476,VALID,0.112112,VALID,24.1209,VALID,14,VALID,0,
2014-03-16, 00:55:04,VALID,1010.83,VALID,0,VALID,98.784,VALID,0,VALID,24.1032,VALID,14,VALID,0,
2014-03-16, 00:56:04,VALID,1010.85,VALID,0,VALID,99.1424,VALID,0,VALID,24.0819,VALID,14,VALID,0,
2014-03-16, 00:57:04,VALID,1010.84,VALID,0,VALID,99.7067,VALID,0.112112,VALID,24.0624,VALID,14,VALID,0,
2014-03-16, 00:58:04,VALID,1010.84,VALID,0,VALID,99.9889,VALID,0,VALID,24.0643,VALID,14,VALID,0,
2014-03-16, 00:59:04,VALID,1010.81,VALID,0,VALID,100.599,VALID,0.112112,VALID,24.004,VALID,14,VALID,0,
2014-03-16, 01:00:04,VALID,1010.81,VALID,0,VALID,101.354,VALID,0.112112,VALID,24.004,VALID,14,VALID,0,
2014-03-16, 01:01:04,VALID,1010.78,VALID,0,VALID,101.911,VALID,0.112112,VALID,23.965,VALID,14,VALID,0,
2014-03-16, 01:02:04,VALID,1010.73,VALID,0,VALID,102.345,VALID,0,VALID,23.9455,VALID,14,VALID,0,
2014-03-16, 01:03:04,VALID,1010.72,VALID,0,VALID,102.803,VALID,0,VALID,23.926,VALID,14,VALID,0,
2014-03-16, 01:04:04,VALID,1010.71,VALID,0,VALID,102.971,VALID,0,VALID,23.8871,VALID,14,VALID,0,
2014-03-16, 01:05:04,VALID,1010.71,VALID,0,VALID,103.428,VALID,0.112112,VALID,23.8676,VALID,14,VALID,0,
2014-03-16, 01:06:04,VALID,1010.71,VALID,0,VALID,104,VALID,0,VALID,23.8694,VALID,14,VALID,0,
2014-03-16, 01:07:04,VALID,1010.71,VALID,0,VALID,104,VALID,0.112112,VALID,23.8091,VALID,14,VALID,0,
2014-03-16, 01:08:04,VALID,1010.75,VALID,0,VALID,104,VALID,0,VALID,23.7896,VALID,14,VALID,0,
2014-03-16, 01:09:04,VALID,1010.74,VALID,0,VALID,104,VALID,0.112112,VALID,23.7701,VALID,14,VALID,0,
2014-03-16, 01:10:04,VALID,1010.72,VALID,0,VALID,104,VALID,0,VALID,23.7525,VALID,14,VALID,0,
2014-03-16, 01:11:04,VALID,1010.74,VALID,0,VALID,104,VALID,0,VALID,23.733,VALID,14,VALID,0,
2014-03-16, 01:12:04,VALID,1010.74,VALID,0,VALID,104,VALID,0.112112,VALID,23.6922,VALID,14,VALID,0,
2014-03-16, 01:13:04,VALID,1010.71,VALID,0,VALID,104,VALID,0.112112,VALID,23.6727,VALID,14,VALID,0,
2014-03-16, 01:14:04,VALID,1010.7,VALID,0,VALID,104,VALID,0.112112,VALID,23.6745,VALID,14,VALID,0,
2014-03-16, 01:15:04,VALID,1010.66,VALID,0,VALID,104,VALID,0,VALID,23.6356,VALID,14,VALID,0,
2014-03-16, 01:16:04,VALID,1010.64,VALID,0,VALID,104,VALID,0,VALID,23.5948,VALID,14,VALID,0,
2014-03-16, 01:17:04,VALID,1010.63,VALID,0,VALID,104,VALID,0,VALID,23.5948,VALID,14,VALID,0,
2014-03-16, 01:18:04,VALID,1010.63,VALID,0,VALID,104,VALID,0.112112,VALID,23.6161,VALID,14,VALID,0,
2014-03-16, 01:19:04,VALID,1010.66,VALID,0,VALID,104,VALID,0,VALID,23.5948,VALID,14,VALID,0,
2014-03-16, 01:20:04,VALID,1010.64,VALID,0,VALID,104,VALID,0.112112,VALID,23.5948,VALID,14,VALID,0,
2014-03-16, 01:21:04,VALID,1010.65,VALID,0,VALID,104,VALID,0.112112,VALID,23.5771,VALID,14,VALID,0,
2014-03-16, 01:22:04,VALID,1010.69,VALID,0,VALID,104,VALID,0.112112,VALID,23.5558,VALID,14,VALID,0,
2014-03-16, 01:23:04,VALID,1010.7,VALID,0,VALID,104,VALID,0.112112,VALID,23.5169,VALID,14,VALID,0,
2014-03-16, 01:24:04,VALID,1010.7,VALID,0,VALID,104,VALID,0.112112,VALID,23.5186,VALID,14,VALID,0,
2014-03-16, 01:25:04,VALID,1010.73,VALID,0,VALID,104,VALID,0,VALID,23.5186,VALID,14,VALID,0,
2014-03-16, 01:26:04,VALID,1010.75,VALID,0,VALID,104,VALID,0,VALID,23.4584,VALID,14,VALID,0,
2014-03-16, 01:27:04,VALID,1010.77,VALID,0,VALID,104,VALID,0,VALID,23.4602,VALID,14,VALID,0,
2014-03-16, 01:28:04,VALID,1010.75,VALID,0,VALID,104,VALID,0,VALID,23.4407,VALID,14,VALID,0,
2014-03-16, 01:29:04,VALID,1010.72,VALID,0,VALID,104,VALID,0,VALID,23.4407,VALID,14,VALID,0,
2014-03-16, 01:30:04,VALID,1010.72,VALID,0,VALID,104,VALID,0,VALID,23.4407,VALID,14,VALID,0,
2014-03-16, 01:31:04,VALID,1010.73,VALID,0,VALID,104,VALID,0,VALID,23.4407,VALID,14,VALID,0,
2014-03-16, 01:32:04,VALID,1010.71,VALID,0,VALID,104,VALID,0,VALID,23.4602,VALID,14,VALID,0,
2014-03-16, 01:33:04,VALID,1010.67,VALID,0,VALID,104,VALID,0,VALID,23.4797,VALID,14,VALID,0,
2014-03-16, 01:34:04,VALID,1010.68,VALID,0,VALID,104,VALID,0,VALID,23.4779,VALID,14,VALID,0,
2014-03-16, 01:35:04,VALID,1010.69,VALID,0,VALID,104,VALID,0,VALID,23.4797,VALID,14,VALID,0,
2014-03-16, 01:36:04,VALID,1010.7,VALID,0,VALID,104,VALID,0,VALID,23.4992,VALID,14,VALID,0,
2014-03-16, 01:37:04,VALID,1010.7,VALID,0,VALID,104,VALID,0,VALID,23.5186,VALID,14,VALID,0,
2014-03-16, 01:38:04,VALID,1010.69,VALID,0,VALID,104,VALID,0,VALID,23.5186,VALID,14,VALID,0,
2014-03-16, 01:39:04,VALID,1010.71,VALID,0,VALID,104,VALID,0,VALID,23.5381,VALID,14,VALID,0,
2014-03-16, 01:40:04,VALID,1010.71,VALID,0,VALID,104,VALID,0,VALID,23.5381,VALID,14,VALID,0,
2014-03-16, 01:41:04,VALID,1010.75,VALID,0,VALID,104,VALID,0,VALID,23.5169,VALID,14,VALID,0,
2014-03-16, 01:42:04,VALID,1010.76,VALID,0,VALID,104,VALID,0,VALID,23.5558,VALID,14,VALID,0,
2014-03-16, 01:43:04,VALID,1010.74,VALID,0,VALID,104,VALID,0,VALID,23.5576,VALID,14,VALID,0,
2014-03-16, 01:44:04,VALID,1010.76,VALID,0,VALID,104,VALID,0,VALID,23.5966,VALID,14,VALID,0,
2014-03-16, 01:45:04,VALID,1010.75,VALID,0,VALID,104,VALID,0,VALID,23.6161,VALID,14,VALID,0,
2014-03-16, 01:46:04,VALID,1010.75,VALID,0,VALID,104,VALID,0,VALID,23.6161,VALID,14,VALID,0,
2014-03-16, 01:47:04,VALID,1010.79,VALID,0,VALID,104,VALID,0,VALID,23.6356,VALID,14,VALID,0,
2014-03-16, 01:48:04,VALID,1010.79,VALID,0,VALID,104,VALID,0,VALID,23.655,VALID,14,VALID,0,
2014-03-16, 01:49:04,VALID,1010.81,VALID,0,VALID,104,VALID,0,VALID,23.6745,VALID,14,VALID,0,
2014-03-16, 01:50:04,VALID,1010.83,VALID,0,VALID,104,VALID,0,VALID,23.694,VALID,14,VALID,0,
2014-03-16, 01:51:04,VALID,1010.85,VALID,0,VALID,104,VALID,0,VALID,23.7135,VALID,14,VALID,0,
2014-03-16, 01:52:04,VALID,1010.86,VALID,0,VALID,104,VALID,0,VALID,23.733,VALID,14,VALID,0,
2014-03-16, 01:53:04,VALID,1010.84,VALID,0,VALID,104,VALID,0,VALID,23.7525,VALID,14,VALID,0,
2014-03-16, 01:54:04,VALID,1010.82,VALID,0,VALID,104,VALID,0,VALID,23.7525,VALID,14,VALID,0,
2014-03-16, 01:55:04,VALID,1010.82,VALID,0,VALID,104,VALID,0,VALID,23.7525,VALID,14,VALID,0,
2014-03-16, 01:56:04,VALID,1010.77,VALID,0,VALID,104,VALID,0,VALID,23.7525,VALID,14,VALID,0,
2014-03-16, 01:57:04,VALID,1010.79,VALID,0,VALID,104,VALID,0,VALID,23.772,VALID,14,VALID,0,
2014-03-16, 01:58:04,VALID,1010.79,VALID,0,VALID,104,VALID,0,VALID,23.7914,VALID,14,VALID,0,
2014-03-16, 01:59:04,VALID,1010.82,VALID,0,VALID,104,VALID,0,VALID,23.8109,VALID,14,VALID,0,
2014-03-16, 02:00:04,VALID,1010.79,VALID,0,VALID,104,VALID,0,VALID,23.7896,VALID,14,VALID,0,
2014-03-16, 02:01:04,VALID,1010.8,VALID,0,VALID,104,VALID,0,VALID,23.7896,VALID,14,VALID,0,
2014-03-16, 02:02:04,VALID,1010.76,VALID,0,VALID,104,VALID,0,VALID,23.8304,VALID,15,VALID,0,
2014-03-16, 02:03:04,VALID,1010.78,VALID,0,VALID,104,VALID,0,VALID,23.8499,VALID,14,VALID,0,
2014-03-16, 02:04:04,VALID,1010.78,VALID,0,VALID,104,VALID,0,VALID,23.8694,VALID,14,VALID,0,
2014-03-16, 02:05:04,VALID,1010.78,VALID,0,VALID,104,VALID,0,VALID,23.8481,VALID,14,VALID,0,
2014-03-16, 02:06:04,VALID,1010.74,VALID,0,VALID,104,VALID,0,VALID,23.8694,VALID,14,VALID,0,
2014-03-16, 02:07:04,VALID,1010.74,VALID,0,VALID,104,VALID,0,VALID,23.8694,VALID,14,VALID,0,
2014-03-16, 02:08:04,VALID,1010.74,VALID,0,VALID,104,VALID,0,VALID,23.8481,VALID,14,VALID,0,
2014-03-16, 02:09:04,VALID,1010.74,VALID,0,VALID,104,VALID,0,VALID,23.8889,VALID,14,VALID,0,
2014-03-16, 02:10:04,VALID,1010.73,VALID,0,VALID,104,VALID,0,VALID,23.8889,VALID,14,VALID,0,
2014-03-16, 02:11:04,VALID,1010.75,VALID,0,VALID,104,VALID,0,VALID,23.8871,VALID,14,VALID,0,
2014-03-16, 02:12:04,VALID,1010.74,VALID,0,VALID,104,VALID,0,VALID,23.8889,VALID,14,VALID,0,
2014-03-16, 02:13:04,VALID,1010.75,VALID,0,VALID,104,VALID,0,VALID,23.8889,VALID,14,VALID,0,
2014-03-16, 02:14:04,VALID,1010.74,VALID,0,VALID,104,VALID,0,VALID,23.8889,VALID,15,VALID,0,
2014-03-16, 02:15:04,VALID,1010.76,VALID,0,VALID,104,VALID,0,VALID,23.8889,VALID,14,VALID,0,
2014-03-16, 02:16:04,VALID,1010.76,VALID,0,VALID,104,VALID,0,VALID,23.8889,VALID,14,VALID,0,
2014-03-16, 02:17:04,VALID,1010.74,VALID,0,VALID,104,VALID,0,VALID,23.8889,VALID,14,VALID,0,
2014-03-16, 02:18:04,VALID,1010.77,VALID,0,VALID,104,VALID,0,VALID,23.8889,VALID,14,VALID,0,
2014-03-16, 02:19:04,VALID,1010.75,VALID,0,VALID,104,VALID,0,VALID,23.8694,VALID,14,VALID,0,
2014-03-16, 02:20:04,VALID,1010.73,VALID,0,VALID,104,VALID,0,VALID,23.8694,VALID,14,VALID,0,
2014-03-16, 02:21:04,VALID,1010.72,VALID,0,VALID,104,VALID,0,VALID,23.8694,VALID,14,VALID,0,
2014-03-16, 02:22:04,VALID,1010.69,VALID,0,VALID,104,VALID,0,VALID,23.8889,VALID,20,VALID,0,
2014-03-16, 02:23:04,VALID,1010.68,VALID,0,VALID,104,VALID,0,VALID,23.8889,VALID,20,VALID,0,
2014-03-16, 02:24:04,VALID,1010.66,VALID,0,VALID,104,VALID,0,VALID,23.8889,VALID,20,VALID,0,
2014-03-16, 02:25:04,VALID,1010.67,VALID,0,VALID,104,VALID,0,VALID,23.8889,VALID,20,VALID,0,
2014-03-16, 02:26:04,VALID,1010.69,VALID,0,VALID,104,VALID,0,VALID,23.8889,VALID,20,VALID,0,
2014-03-16, 02:27:04,VALID,1010.68,VALID,0,VALID,104,VALID,0,VALID,23.9084,VALID,20,VALID,0,
2014-03-16, 02:28:04,VALID,1010.71,VALID,0,VALID,104,VALID,0,VALID,23.8889,VALID,19,VALID,0,
2014-03-16, 02:29:04,VALID,1010.73,VALID,0,VALID,104,VALID,0,VALID,23.8676,VALID,20,VALID,0,
2014-03-16, 02:30:04,VALID,1010.76,VALID,0,VALID,104,VALID,0,VALID,23.8481,VALID,20,VALID,0,
2014-03-16, 02:31:04,VALID,1010.75,VALID,0,VALID,104,VALID,0,VALID,23.8481,VALID,20,VALID,0,
2014-03-16, 02:32:04,VALID,1010.77,VALID,0,VALID,104,VALID,0,VALID,23.8481,VALID,19,VALID,0,
2014-03-16, 02:33:04,VALID,1010.77,VALID,0,VALID,104,VALID,0,VALID,23.8499,VALID,20,VALID,0,
2014-03-16, 02:34:04,VALID,1010.78,VALID,0,VALID,104,VALID,0,VALID,23.8499,VALID,20,VALID,0,
2014-03-16, 02:35:04,VALID,1010.78,VALID,0,VALID,104,VALID,0,VALID,23.8286,VALID,20,VALID,0,
2014-03-16, 02:36:04,VALID,1010.77,VALID,0,VALID,104,VALID,0,VALID,23.8499,VALID,20,VALID,0,
2014-03-16, 02:37:04,VALID,1010.79,VALID,0,VALID,104,VALID,0,VALID,23.8499,VALID,20,VALID,0,
2014-03-16, 02:38:04,VALID,1010.8,VALID,0,VALID,104,VALID,0,VALID,23.8499,VALID,20,VALID,0,
2014-03-16, 02:39:04,VALID,1010.76,VALID,0,VALID,104,VALID,0,VALID,23.8694,VALID,20,VALID,0,
2014-03-16, 02:40:04,VALID,1010.77,VALID,0,VALID,104,VALID,0,VALID,23.8676,VALID,19,VALID,0,
2014-03-16, 02:41:04,VALID,1010.74,VALID,0,VALID,104,VALID,0,VALID,23.8889,VALID,20,VALID,0,
2014-03-16, 02:42:04,VALID,1010.72,VALID,0,VALID,104,VALID,0,VALID,23.9084,VALID,20,VALID,0,
2014-03-16, 02:43:04,VALID,1010.69,VALID,0,VALID,104,VALID,0,VALID,23.9278,VALID,20,VALID,0,
2014-03-16, 02:44:04,VALID,1010.68,VALID,0,VALID,104,VALID,0,VALID,23.9278,VALID,20,VALID,0,
2014-03-16, 02:45:04,VALID,1010.66,VALID,0,VALID,104,VALID,0,VALID,23.9278,VALID,20,VALID,0,
2014-03-16, 02:46:04,VALID,1010.68,VALID,0,VALID,104,VALID,0,VALID,23.9278,VALID,20,VALID,0,
2014-03-16, 02:47:04,VALID,1010.69,VALID,0,VALID,104,VALID,0,VALID,23.9473,VALID,20,VALID,0,
2014-03-16, 02:48:04,VALID,1010.69,VALID,0,VALID,104,VALID,0,VALID,23.9668,VALID,20,VALID,0,
2014-03-16, 02:49:04,VALID,1010.69,VALID,0,VALID,104,VALID,0,VALID,23.9473,VALID,20,VALID,0,
2014-03-16, 02:50:04,VALID,1010.73,VALID,0,VALID,104,VALID,0,VALID,23.9473,VALID,20,VALID,0,
2014-03-16, 02:51:04,VALID,1010.74,VALID,0,VALID,104,VALID,0,VALID,23.9473,VALID,20,VALID,0,
2014-03-16, 02:52:04,VALID,1010.79,VALID,0,VALID,104,VALID,0,VALID,23.9473,VALID,20,VALID,0,
2014-03-16, 02:53:04,VALID,1010.79,VALID,0,VALID,104,VALID,0,VALID,23.9668,VALID,20,VALID,0,
2014-03-16, 02:54:04,VALID,1010.8,VALID,0,VALID,104,VALID,0,VALID,23.9473,VALID,20,VALID,0,
2014-03-16, 02:55:04,VALID,1010.8,VALID,0,VALID,104,VALID,0,VALID,23.9473,VALID,20,VALID,0,
2014-03-16, 02:56:04,VALID,1010.81,VALID,0,VALID,104,VALID,0,VALID,23.9473,VALID,20,VALID,0,
2014-03-16, 02:57:04,VALID,1010.81,VALID,0,VALID,104,VALID,0,VALID,23.9668,VALID,20,VALID,0,
2014-03-16, 02:58:04,VALID,1010.81,VALID,0,VALID,104,VALID,0,VALID,23.9863,VALID,20,VALID,0,
2014-03-16, 02:59:04,VALID,1010.81,VALID,0,VALID,104,VALID,0,VALID,24.0058,VALID,20,VALID,0,
2014-03-16, 03:00:04,VALID,1010.81,VALID,0,VALID,104,VALID,0,VALID,24.0253,VALID,20,VALID,0,
2014-03-16, 03:01:04,VALID,1010.81,VALID,0,VALID,104,VALID,0,VALID,24.0448,VALID,20,VALID,0,
2014-03-16, 03:02:04,VALID,1010.79,VALID,0,VALID,104,VALID,0,VALID,24.0643,VALID,20,VALID,0,
2014-03-16, 03:03:04,VALID,1010.84,VALID,0,VALID,104,VALID,0,VALID,24.0643,VALID,20,VALID,0,
2014-03-16, 03:04:04,VALID,1010.84,VALID,0,VALID,104,VALID,0,VALID,24.0643,VALID,20,VALID,0,
2014-03-16, 03:05:04,VALID,1010.84,VALID,0,VALID,104,VALID,0,VALID,24.0643,VALID,20,VALID,0,
2014-03-16, 03:06:04,VALID,1010.84,VALID,0,VALID,104,VALID,0,VALID,24.0643,VALID,20,VALID,0,
2014-03-16, 03:07:04,VALID,1010.85,VALID,0,VALID,104,VALID,0,VALID,24.0643,VALID,20,VALID,0,
2014-03-16, 03:08:04,VALID,1010.86,VALID,0,VALID,104,VALID,0,VALID,24.0429,VALID,20,VALID,0,
2014-03-16, 03:09:04,VALID,1010.87,VALID,0,VALID,104,VALID,0,VALID,24.0643,VALID,20,VALID,0,
2014-03-16, 03:10:04,VALID,1010.89,VALID,0,VALID,104,VALID,0,VALID,24.0856,VALID,20,VALID,0,
2014-03-16, 03:11:04,VALID,1010.91,VALID,0,VALID,104,VALID,0,VALID,24.0837,VALID,71,VALID,0,
2014-03-16, 03:12:04,VALID,1010.93,VALID,0,VALID,104,VALID,0.112112,VALID,24.0429,VALID,70,VALID,0,
2014-03-16, 03:13:04,VALID,1010.98,VALID,0,VALID,104,VALID,0.112112,VALID,24.0429,VALID,57,VALID,0,
2014-03-16, 03:14:04,VALID,1010.99,VALID,0,VALID,104,VALID,0.112112,VALID,24.0448,VALID,76,VALID,0,
2014-03-16, 03:15:04,VALID,1011,VALID,0,VALID,104,VALID,0.112112,VALID,24.0448,VALID,69,VALID,0,
2014-03-16, 03:16:04,VALID,1011.01,VALID,0,VALID,104,VALID,0.112112,VALID,24.0235,VALID,58,VALID,0,
2014-03-16, 03:17:04,VALID,1011.02,VALID,0,VALID,104,VALID,0.112112,VALID,24.0235,VALID,39,VALID,0,
2014-03-16, 03:18:04,VALID,1011.03,VALID,0,VALID,104,VALID,0.112112,VALID,24.004,VALID,34,VALID,0,
2014-03-16, 03:19:04,VALID,1011.05,VALID,0,VALID,104,VALID,0.112112,VALID,23.9845,VALID,44,VALID,0,
2014-03-16, 03:20:04,VALID,1011.05,VALID,0,VALID,104,VALID,0.112112,VALID,23.9845,VALID,43,VALID,0,
2014-03-16, 03:21:04,VALID,1011.03,VALID,0,VALID,104,VALID,0.112112,VALID,23.9845,VALID,40,VALID,0,
2014-03-16, 03:22:04,VALID,1010.99,VALID,0,VALID,104,VALID,0.112112,VALID,23.9632,VALID,40,VALID,0,
2014-03-16, 03:23:04,VALID,1011.03,VALID,0,VALID,104,VALID,0.112112,VALID,23.9845,VALID,40,VALID,0,
2014-03-16, 03:24:04,VALID,1011,VALID,0,VALID,104,VALID,0.112112,VALID,23.9845,VALID,40,VALID,0,
2014-03-16, 03:25:04,VALID,1010.98,VALID,0,VALID,104,VALID,0.112112,VALID,23.9632,VALID,40,VALID,0,
2014-03-16, 03:26:04,VALID,1010.98,VALID,0,VALID,104,VALID,0.112112,VALID,24.004,VALID,40,VALID,0,
2014-03-16, 03:27:04,VALID,1010.96,VALID,0,VALID,104,VALID,0.112112,VALID,24.004,VALID,40,VALID,0,
2014-03-16, 03:28:04,VALID,1010.94,VALID,0,VALID,104,VALID,0.112112,VALID,24.004,VALID,41,VALID,0,
2014-03-16, 03:29:04,VALID,1010.92,VALID,0,VALID,104,VALID,0.112112,VALID,24.0235,VALID,41,VALID,0,
2014-03-16, 03:30:04,VALID,1010.91,VALID,0,VALID,104,VALID,0.112112,VALID,24.0235,VALID,41,VALID,0,
2014-03-16, 03:31:04,VALID,1010.89,VALID,0,VALID,104,VALID,0,VALID,24.0837,VALID,40,VALID,0,
2014-03-16, 03:32:04,VALID,1010.87,VALID,0,VALID,104,VALID,0.112112,VALID,24.0624,VALID,40,VALID,0,
2014-03-16, 03:33:04,VALID,1010.87,VALID,0,VALID,104,VALID,0.112112,VALID,24.0624,VALID,40,VALID,0,
2014-03-16, 03:34:04,VALID,1010.85,VALID,0,VALID,104,VALID,0.112112,VALID,24.0624,VALID,40,VALID,0,
2014-03-16, 03:35:04,VALID,1010.81,VALID,0,VALID,104,VALID,0.112112,VALID,24.0624,VALID,40,VALID,0,
2014-03-16, 03:36:04,VALID,1010.78,VALID,0,VALID,104,VALID,0.112112,VALID,24.0643,VALID,41,VALID,0,
2014-03-16, 03:37:04,VALID,1010.78,VALID,0,VALID,104,VALID,0.112112,VALID,24.0624,VALID,40,VALID,0,
2014-03-16, 03:38:04,VALID,1010.76,VALID,0,VALID,104,VALID,0,VALID,24.1014,VALID,40,VALID,0,
2014-03-16, 03:39:04,VALID,1010.77,VALID,0,VALID,104,VALID,0.112112,VALID,24.1209,VALID,40,VALID,0,
2014-03-16, 03:40:04,VALID,1010.79,VALID,0,VALID,104,VALID,0.112112,VALID,24.0801,VALID,40,VALID,0,
2014-03-16, 03:41:04,VALID,1010.81,VALID,0,VALID,104,VALID,0.112112,VALID,24.1404,VALID,40,VALID,0,
2014-03-16, 03:42:04,VALID,1010.8,VALID,0,VALID,104,VALID,0.112112,VALID,24.1599,VALID,40,VALID,0,
2014-03-16, 03:43:04,VALID,1010.82,VALID,0,VALID,104,VALID,0.112112,VALID,24.1793,VALID,40,VALID,0,
2014-03-16, 03:44:04,VALID,1010.84,VALID,0,VALID,104,VALID,0.112112,VALID,24.1988,VALID,40,VALID,0,
2014-03-16, 03:45:04,VALID,1010.87,VALID,0,VALID,104,VALID,0.112112,VALID,24.1988,VALID,40,VALID,0,
2014-03-16, 03:46:04,VALID,1010.89,VALID,0,VALID,104,VALID,0,VALID,24.2183,VALID,40,VALID,0,
2014-03-16, 03:47:04,VALID,1010.91,VALID,0,VALID,104,VALID,0.112112,VALID,24.1793,VALID,25,VALID,0,
2014-03-16, 03:48:04,VALID,1010.94,VALID,0,VALID,104,VALID,0.112112,VALID,24.1404,VALID,40,VALID,0,
2014-03-16, 03:49:04,VALID,1010.91,VALID,0,VALID,104,VALID,0.112112,VALID,24.1014,VALID,34,VALID,0,
2014-03-16, 03:50:04,VALID,1010.93,VALID,0,VALID,104,VALID,0.112112,VALID,24.0624,VALID,33,VALID,0,
2014-03-16, 03:51:04,VALID,1010.92,VALID,0,VALID,104,VALID,0.112112,VALID,24.0624,VALID,34,VALID,0,
2014-03-16, 03:52:04,VALID,1010.9,VALID,0,VALID,104,VALID,0.112112,VALID,24.0235,VALID,34,VALID,0,
2014-03-16, 03:53:04,VALID,1010.89,VALID,0,VALID,104,VALID,0.112112,VALID,24.0235,VALID,34,VALID,0,
2014-03-16, 03:54:04,VALID,1010.87,VALID,0,VALID,104,VALID,0.112112,VALID,24.004,VALID,34,VALID,0,
2014-03-16, 03:55:04,VALID,1010.88,VALID,0,VALID,104,VALID,0,VALID,24.004,VALID,34,VALID,0,
2014-03-16, 03:56:04,VALID,1010.88,VALID,0,VALID,104,VALID,0.112112,VALID,24.004,VALID,34,VALID,0,
2014-03-16, 03:57:04,VALID,1010.88,VALID,0,VALID,104,VALID,0,VALID,24.0253,VALID,34,VALID,0,
2014-03-16, 03:58:04,VALID,1010.87,VALID,0,VALID,104,VALID,0,VALID,24.0253,VALID,66,VALID,0,
2014-03-16, 03:59:04,VALID,1010.88,VALID,0,VALID,104,VALID,0,VALID,24.0253,VALID,72,VALID,0,
2014-03-16, 04:00:04,VALID,1010.91,VALID,0,VALID,104,VALID,0,VALID,24.0253,VALID,73,VALID,0,
2014-03-16, 04:01:04,VALID,1010.89,VALID,0,VALID,104,VALID,0,VALID,24.0448,VALID,72,VALID,0,
2014-03-16, 04:02:04,VALID,1010.89,VALID,0,VALID,104,VALID,0,VALID,24.0448,VALID,72,VALID,0,
2014-03-16, 04:03:04,VALID,1010.88,VALID,0,VALID,104,VALID,0,VALID,24.0643,VALID,72,VALID,0,